Theta_e
329 329 328 331 333 329 328 329 325 323 326 325 324 326 332 334 322 319 342 354 336 329 336 335 338 345 344 347 350 345 344 343 342 343 342 341 341 341 342 343 342 343 343 343 344 342 342 342 339 336 335 335 335 336 337 337 337 337 335 331 328 328 328 329 328 327 326 326 325 325 325 326 327 326 326 326 327 327 327 328 329 330 330 329 329 328 329
326 326 327 330 329 327 327 327 327 326 326 325 325 329 332 331 327 329 340 343 337 334 334 332 336 340 336 337 341 340 340 342 342 342 342 342 341 341 342 342 341 342 343 344 344 343 343 342 340 337 336 335 336 336 337 337 336 335 334 331 329 329 329 328 327 325 325 325 325 325 326 327 327 326 325 325 325 326 327 328 329 329 329 328 328 329 330
323 326 328 327 326 327 325 325 327 326 325 325 324 326 330 328 330 334 335 334 336 336 334 333 335 338 336 334 336 338 340 342 342 342 342 342 341 341 341 341 341 342 343 343 344 343 343 341 339 336 336 335 336 337 336 335 334 334 334 331 329 329 329 327 326 325 325 325 326 327 327 328 328 326 324 324 325 326 327 329 329 329 328 327 327 329 330
319 325 328 326 327 327 323 323 327 325 323 325 325 328 331 329 332 338 334 327 330 337 340 337 336 338 337 335 337 339 340 341 341 342 343 342 342 342 341 341 342 342 341 341 343 343 343 340 337 335 336 336 336 336 335 332 331 332 333 331 329 329 329 328 327 327 326 327 327 328 328 329 328 325 323 324 325 327 328 329 328 327 327 326 327 328 329
318 325 328 325 325 322 320 324 329 329 328 329 328 328 333 334 334 334 328 325 333 344 345 341 341 342 341 340 340 339 340 341 341 342 343 343 341 341 342 342 342 341 340 340 342 343 341 338 335 335 335 335 335 334 331 329 330 331 331 331 329 329 329 329 328 328 328 328 329 329 329 329 327 325 323 323 325 327 328 328 327 326 326 326 326 327 328
319 326 328 324 321 319 321 329 334 332 330 330 328 329 334 337 335 333 331 334 343 346 343 341 341 341 342 340 337 336 337 339 341 342 342 342 341 341 341 341 341 341 341 341 341 341 338 335 334 335 334 334 334 331 329 329 330 330 330 330 329 329 328 329 328 328 329 330 330 330 330 328 326 325 324 322 324 327 328 327 326 326 326 325 325 325 325
323 327 327 322 319 322 330 335 332 329 328 331 333 335 339 337 335 338 338 336 341 345 341 338 338 338 339 337 334 335 335 336 339 341 341 341 341 340 340 341 341 341 342 342 341 339 336 334 334 335 334 334 333 330 329 330 330 330 330 330 330 329 329 329 329 329 329 330 330 330 330 328 326 325 324 323 325 327 326 325 326 326 325 324 323 324 323
325 325 322 320 322 329 336 335 329 327 330 332 329 329 335 340 337 337 338 336 340 344 338 335 336 336 334 335 335 335 334 334 337 339 340 341 340 340 341 341 341 342 341 340 339 336 334 334 335 334 333 333 332 330 329 330 330 330 331 331 331 331 330 330 330 330 331 331 331 331 330 328 326 324 323 324 325 326 325 324 324 325 325 324 323 324 323
327 323 321 323 325 328 331 334 335 333 333 337 333 325 333 348 343 335 339 342 343 343 338 335 336 335 335 339 340 336 333 333 336 337 338 339 338 340 341 341 341 340 337 336 335 333 333 334 334 334 333 332 331 330 330 331 330 330 331 331 331 331 331 332 331 332 332 331 331 331 329 327 325 324 324 324 324 324 324 323 323 325 325 324 324 323 323
327 325 321 324 323 321 328 339 344 336 329 337 341 328 328 345 346 335 338 344 344 344 341 336 336 337 338 340 342 337 332 332 333 335 336 337 339 341 340 339 340 337 334 333 333 333 333 334 333 332 332 332 331 331 331 331 330 331 332 332 331 331 331 332 332 332 331 331 331 330 329 327 325 324 324 324 323 323 323 323 324 325 326 325 324 323 323
326 324 320 323 323 323 335 346 341 331 325 333 338 326 323 341 350 338 336 341 344 345 341 337 339 341 336 335 339 337 333 332 332 333 335 336 338 339 338 338 337 335 333 333 333 334 334 335 333 332 332 331 330 331 331 331 332 333 332 331 331 331 331 332 331 329 328 329 330 330 329 326 324 324 324 324 323 322 321 322 323 324 324 324 324 324 323
325 323 321 323 323 327 341 345 333 325 326 332 331 319 320 342 354 340 336 343 347 345 341 338 340 342 338 338 338 335 333 332 333 334 335 336 337 337 337 336 334 333 333 333 334 335 335 334 332 332 332 331 331 332 331 332 334 334 332 330 330 331 331 331 329 326 325 328 330 329 328 325 324 324 324 323 322 321 321 322 321 321 322 323 324 324 324
324 323 321 321 324 331 339 337 327 325 328 328 322 319 328 349 354 341 339 343 345 344 340 338 340 343 341 338 334 332 332 332 333 334 335 335 336 336 335 334 333 333 333 333 334 334 333 332 333 333 332 333 332 332 332 334 335 333 331 331 331 331 331 329 326 325 326 327 328 328 328 325 324 324 323 322 322 322 322 322 321 321 322 321 322 323 322
324 324 322 320 323 330 332 328 325 326 326 323 324 334 348 354 350 344 340 339 340 341 340 340 341 340 335 331 331 332 333 335 335 334 334 334 335 335 334 335 334 334 334 334 334 334 333 333 334 333 333 332 332 333 335 335 334 331 332 332 330 328 328 327 325 325 326 326 327 328 327 325 324 324 322 321 322 322 322 322 322 323 324 322 322 323 323
324 324 322 319 321 327 327 326 327 328 326 328 335 346 349 343 341 343 340 337 338 339 339 338 338 336 333 332 333 334 335 338 337 335 335 335 336 335 334 335 335 336 336 335 333 334 335 334 333 333 332 332 333 336 336 335 332 332 332 329 327 327 327 326 326 325 325 326 328 329 327 325 323 322 321 321 322 322 322 322 323 325 325 324 323 324 326
323 321 322 325 329 330 327 328 333 333 332 335 335 336 337 336 337 338 338 338 337 337 338 338 337 337 338 337 337 337 337 337 336 337 337 337 337 337 335 334 336 337 337 336 335 336 335 333 332 332 332 333 334 336 336 333 331 331 328 326 326 327 326 326 326 325 325 326 327 328 327 324 322 321 321 321 321 322 322 323 325 326 326 326 325 326 327
326 325 327 332 336 333 326 327 332 333 332 333 331 330 332 336 336 335 337 338 336 335 337 337 337 339 340 339 338 338 337 336 336 337 338 337 336 336 334 333 335 336 338 338 337 336 334 331 331 331 331 333 335 336 334 331 329 327 325 326 327 327 325 325 324 323 324 324 325 325 324 323 322 321 321 321 322 323 324 325 326 326 326 326 326 326 327
329 329 331 332 331 330 327 327 328 327 326 328 330 331 331 333 334 333 334 336 335 333 335 336 337 339 340 338 337 336 336 337 337 337 338 337 335 335 335 333 332 334 337 337 336 336 334 331 331 331 331 333 335 334 331 327 325 325 325 327 328 326 324 323 322 321 323 324 325 325 322 322 322 321 321 322 322 323 325 325 325 325 325 325 326 326 326
326 327 333 332 328 329 330 327 327 327 327 327 329 331 333 334 333 331 332 334 333 332 334 337 339 339 337 338 338 337 337 339 338 338 339 337 335 334 333 333 332 333 336 336 335 336 335 332 330 330 331 333 333 331 327 325 324 325 327 328 328 326 323 322 321 322 323 324 325 325 322 321 322 321 320 321 321 322 324 326 326 325 325 324 325 325 325
326 328 333 331 327 330 332 329 328 330 329 329 330 331 332 333 332 330 331 332 331 331 333 337 341 339 337 340 341 339 340 345 345 342 339 336 334 331 328 327 330 333 335 336 335 336 337 335 331 330 332 333 331 328 326 325 326 327 328 328 327 326 324 322 322 322 322 323 325 325 323 321 322 322 321 321 322 324 324 325 325 324 324 325 325 324 324
327 329 330 327 326 329 330 328 330 331 330 331 331 330 329 331 330 329 329 329 329 330 332 335 340 340 340 343 341 334 339 350 350 343 337 334 331 329 327 327 329 332 334 335 336 336 336 334 331 330 332 332 330 327 326 326 327 328 328 327 326 326 326 324 323 323 324 323 323 324 324 321 320 321 321 321 323 326 324 322 321 321 322 322 322 320 320
327 328 328 326 325 326 326 324 326 330 330 329 330 330 329 330 330 330 329 327 327 330 331 334 339 341 343 347 344 336 339 348 346 338 335 333 331 329 328 328 331 333 334 334 335 335 334 330 329 329 329 328 328 328 328 327 328 328 328 327 327 326 326 324 323 324 324 324 322 322 323 322 321 320 321 321 322 324 323 321 320 320 319 319 320 319 319
325 324 326 326 325 325 326 325 326 328 328 327 329 331 331 331 330 331 330 328 329 331 331 332 338 344 348 347 342 337 338 340 338 334 333 333 333 330 329 330 332 332 331 331 331 332 330 328 327 327 328 327 327 327 327 327 327 326 326 326 326 325 324 324 324 324 324 325 323 321 321 322 322 322 323 323 321 321 321 320 319 319 319 319 319 320 319
322 321 323 324 324 323 324 324 325 326 326 326 326 328 329 329 328 329 331 333 334 336 335 332 335 341 344 340 338 340 340 336 333 332 329 328 330 329 329 331 333 331 330 330 330 330 328 326 326 327 327 327 327 327 326 326 326 325 324 324 325 324 324 324 324 323 323 324 324 322 322 323 323 323 325 325 321 319 319 319 319 318 318 319 319 318 318
319 320 322 323 324 324 325 325 325 326 326 326 326 326 327 328 328 330 334 337 336 336 336 335 333 334 336 335 335 339 340 333 330 330 329 328 328 329 329 330 331 331 330 329 328 327 326 326 326 326 325 326 326 326 327 326 326 325 323 322 323 323 324 324 324 323 324 324 323 322 323 324 325 325 326 327 324 320 318 318 318 318 318 318 318 317 317
318 319 320 321 322 324 326 325 325 325 326 327 327 328 329 330 330 331 334 336 334 332 334 336 333 329 330 331 331 333 334 332 330 330 331 331 331 330 330 330 329 328 327 326 326 327 327 327 327 327 327 328 327 326 326 325 323 322 321 321 322 322 322 323 325 325 325 325 324 324 324 324 326 327 326 325 325 322 320 319 319 318 318 317 317 317 316
318 319 319 319 319 322 324 323 323 323 325 326 327 328 331 331 331 330 329 330 330 330 331 332 331 328 328 330 331 332 332 333 332 331 331 332 331 329 328 327 326 326 326 326 326 326 326 326 327 328 329 328 326 325 323 322 320 320 320 322 324 324 322 323 325 326 325 324 324 324 324 324 325 325 323 321 321 320 320 319 319 318 318 317 316 315 315
319 319 319 319 319 320 321 322 323 323 324 326 328 329 330 330 328 327 327 327 328 330 330 329 330 331 331 331 332 334 334 334 334 333 331 330 328 326 324 324 324 325 326 326 324 324 324 325 327 328 328 325 324 323 322 321 321 322 323 324 327 327 325 324 325 325 325 324 323 323 323 322 322 321 320 320 319 318 317 317 317 317 317 316 315 314 314
320 320 320 320 320 320 320 322 324 324 324 327 329 329 328 328 326 326 327 328 328 329 329 329 330 333 333 331 332 335 335 334 334 333 330 327 325 323 323 323 322 323 324 325 325 325 325 326 327 328 327 324 324 324 323 323 324 325 326 326 327 327 326 325 324 324 323 323 322 321 321 321 320 319 319 319 318 317 317 316 316 315 315 314 314 314 312
318 319 320 320 320 320 321 323 324 324 324 326 329 329 327 327 327 327 328 328 328 329 329 329 330 331 331 331 332 332 332 332 331 330 326 323 322 322 321 322 323 324 326 326 326 326 326 326 327 326 324 323 324 324 323 323 325 326 326 326 326 324 324 323 323 323 323 321 320 319 319 319 318 318 318 317 317 316 315 313 313 312 312 312 312 311 310
319 318 318 319 319 320 321 323 324 324 324 326 328 328 328 327 329 330 329 328 329 330 330 329 330 331 331 330 329 328 328 328 327 325 323 322 322 322 321 322 325 327 327 326 325 324 325 325 324 323 322 321 322 321 321 323 326 326 325 324 324 322 322 322 322 322 321 320 319 318 318 317 317 317 317 316 315 314 313 312 311 311 311 310 309 308 308
320 320 320 320 321 320 321 324 325 325 324 325 326 328 328 327 329 331 330 328 328 329 329 329 330 330 328 326 326 326 326 326 325 324 323 322 322 322 322 323 325 326 325 324 323 322 323 323 322 320 319 318 319 319 321 323 326 325 324 323 323 322 321 321 321 321 320 319 319 318 317 317 316 316 316 315 314 313 312 311 310 309 309 307 306 305 305
321 322 322 323 322 322 322 323 324 325 325 325 326 328 328 327 328 330 329 327 327 328 328 329 329 327 325 325 326 326 326 325 325 324 323 323 323 323 323 323 323 322 321 320 320 319 319 319 319 319 319 320 321 321 322 324 324 324 323 322 322 321 320 320 320 320 319 318 317 317 316 316 315 315 314 313 312 312 311 310 310 309 307 306 304 303 303
321 321 322 322 321 321 321 321 322 323 324 324 324 325 326 327 328 328 328 327 327 327 327 328 327 325 325 326 327 327 327 327 326 324 323 322 322 322 321 321 320 320 320 319 319 319 319 319 319 319 320 321 322 322 322 323 322 322 322 321 320 319 319 318 318 318 317 316 315 315 314 314 313 313 313 312 311 311 310 309 309 308 307 305 303 302 302
321 320 320 320 320 319 319 319 320 321 322 323 324 324 325 326 327 327 327 327 326 326 326 326 325 325 326 327 327 327 327 326 325 323 322 322 321 320 319 319 320 320 320 320 320 320 320 321 320 320 320 320 320 320 321 321 320 320 320 319 318 317 317 317 316 316 315 314 314 313 312 312 311 311 311 310 310 310 309 308 308 307 306 305 304 302 301
322 320 320 320 320 319 319 319 319 320 322 324 324 324 324 325 327 327 326 325 325 324 324 324 325 325 326 326 326 326 325 323 322 321 321 320 319 319 319 319 320 320 320 319 317 317 319 321 320 319 319 319 319 319 319 319 319 318 317 317 316 315 314 314 313 313 312 312 311 311 310 310 309 309 309 308 308 308 307 307 306 306 305 304 303 302 301
322 321 320 320 320 320 320 320 321 322 325 325 325 324 325 326 327 326 324 323 323 323 323 324 325 325 324 323 323 323 322 321 321 320 319 319 318 319 319 319 319 319 320 319 317 317 318 319 318 317 318 319 318 317 317 318 317 316 315 314 313 312 311 311 310 310 310 310 309 309 308 308 307 307 307 307 307 306 306 305 305 304 303 302 302 301 300
322 321 321 321 320 321 321 321 322 323 324 325 325 325 325 325 324 323 322 322 322 322 323 323 323 323 322 321 321 321 320 320 319 319 318 318 318 318 318 318 318 318 318 318 317 317 318 317 317 317 317 317 316 315 315 315 315 313 312 311 310 309 309 309 308 308 308 308 307 307 307 306 306 305 305 305 305 305 305 304 303 302 301 301 300 299 299
321 321 321 321 321 321 322 322 323 324 324 325 326 325 324 322 321 321 321 322 322 322 322 322 321 321 321 321 321 320 319 319 318 318 317 317 317 317 317 316 316 317 317 316 316 317 316 315 315 315 315 315 314 313 312 311 311 310 310 310 309 309 308 307 307 306 306 306 306 306 306 305 305 304 304 304 304 304 303 303 302 301 300 299 299 298 298
320 320 321 321 321 321 322 323 323 323 323 323 323 322 322 321 321 322 323 322 321 321 321 321 321 321 321 320 320 319 318 318 317 316 316 315 316 316 316 316 315 316 316 316 316 316 315 314 313 313 313 313 312 311 308 307 307 308 308 309 309 308 307 307 307 306 306 305 305 305 305 304 304 303 303 303 303 302 302 302 301 300 300 299 299 298 298
320 321 321 321 321 322 322 322 322 323 322 321 321 320 320 321 322 323 322 320 318 318 320 321 321 321 320 319 319 318 316 315 314 314 315 316 317 317 317 316 315 315 316 316 315 314 313 312 312 312 311 311 310 308 306 306 307 307 308 308 308 307 307 306 306 305 305 304 304 304 303 303 303 302 301 301 301 301 301 301 301 300 300 299 299 298 298
321 322 322 322 323 324 324 323 323 324 324 323 321 321 320 320 321 321 320 317 315 316 319 321 320 320 319 318 317 316 315 314 313 314 314 316 317 317 316 315 315 315 315 313 313 312 312 311 311 311 310 309 307 306 305 306 306 307 307 307 306 306 306 305 305 304 304 303 303 302 302 302 302 301 301 301 300 300 300 300 300 299 299 299 298 298 297
322 323 323 323 324 325 325 325 324 324 323 322 321 320 319 319 318 318 318 318 318 319 321 321 320 319 319 318 317 315 314 314 313 313 313 313 314 315 315 315 314 313 312 311 311 311 311 311 310 308 306 306 305 305 305 306 306 306 306 306 306 305 305 304 304 303 302 302 302 301 301 301 301 300 300 300 300 300 299 299 299 298 298 298 297 297 297
323 323 324 324 324 324 325 325 325 324 323 322 320 319 319 319 317 317 319 320 321 321 321 321 320 319 318 317 317 316 315 314 313 313 312 312 312 312 313 314 313 311 310 310 311 311 310 310 308 305 302 302 302 303 304 304 305 305 305 305 305 304 304 303 303 303 302 302 301 301 301 300 300 300 299 299 299 299 299 298 298 298 297 297 297 296 296
322 323 323 323 324 324 324 325 324 323 322 321 319 319 319 319 319 319 320 321 322 321 321 320 319 318 318 317 316 316 314 313 312 313 313 313 313 312 313 313 313 310 308 308 309 309 308 306 304 301 300 300 300 301 303 303 303 303 304 304 303 303 303 303 303 302 302 301 301 301 300 300 300 299 299 299 298 298 298 298 297 297 297 296 296 295 295
322 322 322 323 322 322 321 321 321 321 321 321 321 320 319 319 320 321 322 322 322 321 320 320 319 319 318 316 315 314 313 312 312 312 313 313 313 313 312 312 310 308 306 306 307 308 307 303 301 300 300 300 300 300 301 302 301 301 302 302 302 302 302 302 302 302 301 301 301 300 300 299 299 298 298 298 297 297 297 296 296 296 296 295 295 295 294
321 322 322 321 321 320 319 319 320 320 321 321 321 320 320 320 320 321 322 322 321 321 320 319 319 318 317 315 313 313 312 312 312 312 312 312 312 312 311 310 309 306 305 305 307 307 305 303 301 300 300 299 299 300 300 300 299 300 300 301 301 301 301 302 301 301 300 300 300 299 299 298 298 297 297 297 296 296 296 295 295 295 295 295 294 294 294
320 321 321 321 320 320 319 320 321 322 322 322 321 321 320 320 321 321 321 321 320 320 319 318 317 317 316 315 314 313 313 313 313 312 311 311 311 311 311 311 308 305 304 305 306 305 304 302 301 300 299 299 299 299 299 299 299 299 299 299 300 300 301 301 301 300 299 299 299 298 297 297 297 296 296 296 295 295 295 295 294 294 294 294 293 293 293
320 320 321 321 321 321 321 322 322 322 322 322 322 321 320 320 321 320 320 320 320 319 318 318 317 316 315 315 314 313 313 314 314 312 311 311 311 311 311 311 308 306 305 307 307 305 303 302 300 300 299 299 299 299 299 299 299 298 298 299 299 299 300 300 299 298 298 298 297 297 296 296 296 295 295 295 295 294 294 294 294 293 293 293 293 293 292
321 322 322 322 322 322 323 323 323 323 323 322 321 320 320 321 321 321 320 320 320 319 318 317 317 316 315 315 314 314 313 313 312 311 310 309 310 310 311 310 309 308 307 308 308 306 304 302 301 300 299 299 299 299 299 299 299 298 298 298 298 298 298 297 296 296 296 296 296 296 296 295 295 295 295 294 294 294 294 293 293 292 292 292 293 292 292
322 323 323 322 322 321 320 320 321 321 322 322 321 321 321 321 322 321 320 320 320 319 318 317 316 315 315 315 315 314 312 312 312 311 309 308 308 309 309 309 310 309 308 307 307 307 305 304 303 302 300 300 300 300 299 299 299 298 298 298 298 297 297 296 296 296 296 296 296 296 296 295 295 295 294 294 294 294 293 293 293 292 292 292 292 292 292
319 320 320 320 320 319 318 318 318 320 321 321 321 321 321 321 321 320 319 319 319 319 319 318 317 315 314 314 314 313 312 312 312 311 309 308 307 308 308 309 310 309 308 307 307 306 305 304 303 302 300 299 300 300 299 299 299 299 298 298 298 297 297 297 297 297 296 296 296 296 296 295 295 295 294 294 294 294 293 293 293 293 292 292 292 292 292
Wind_Speed
1 2 1 1 1 2 4 8 10 10 8 9 10 6 4 7 5 6 1 6 8 9 6 8 9 6 6 8 7 6 6 7 9 9 10 11 12 12 13 12 12 12 11 10 10 13 13 15 18 19 18 18 18 18 19 18 16 13 11 11 12 12 13 14 15 15 15 15 16 16 17 17 17 16 17 17 18 18 18 18 17 17 16 17 18 19 19
4 2 1 1 2 4 5 5 7 8 8 9 8 4 5 7 7 6 1 4 10 10 7 11 11 4 4 7 5 6 8 9 10 11 13 13 14 14 14 13 13 12 11 11 11 13 13 14 17 19 18 19 19 20 20 18 15 13 12 13 13 13 14 14 14 14 15 15 16 16 17 18 18 17 17 17 19 20 19 18 18 17 17 17 18 18 18
3 2 2 3 3 4 5 4 4 4 5 4 3 2 3 5 5 6 3 5 10 8 7 11 11 4 4 7 8 8 9 9 11 12 13 14 14 14 14 13 13 11 10 10 11 13 14 16 19 20 20 20 20 21 20 17 14 13 13 14 15 15 16 15 15 15 16 16 17 17 18 19 18 16 17 18 20 20 19 18 17 16 16 17 18 18 17
2 2 3 5 5 5 3 2 5 7 6 4 3 3 4 5 4 4 4 5 8 5 3 6 8 5 6 10 9 8 7 8 11 13 13 14 14 14 14 14 12 12 11 10 12 13 15 19 22 22 22 21 22 22 19 15 13 13 14 15 17 17 17 17 17 17 18 18 19 18 19 19 17 15 16 19 20 19 17 16 15 14 16 17 18 17 16
2 2 2 5 5 3 2 4 7 10 8 5 3 2 5 7 5 4 5 6 6 3 1 4 6 5 6 7 6 5 6 8 11 12 13 13 14 15 14 14 13 12 12 12 14 15 17 21 24 25 24 23 23 21 16 13 12 14 15 16 18 19 19 19 18 19 19 20 20 19 18 19 16 15 17 19 19 18 16 14 14 14 16 16 15 15 16
3 2 3 4 4 5 3 0 1 4 7 9 8 5 6 8 6 4 4 5 5 4 5 6 8 6 5 5 5 5 6 7 9 11 12 13 14 14 14 14 13 11 11 12 14 17 22 26 26 26 24 24 23 18 13 13 14 15 16 17 19 20 21 21 20 20 20 21 21 19 18 17 16 16 17 18 18 16 14 14 14 14 15 14 14 14 15
3 3 3 4 5 4 1 2 1 1 2 6 5 4 4 7 8 7 7 8 9 8 7 7 8 7 5 6 7 7 7 8 9 10 11 12 13 14 13 12 10 10 11 12 12 17 24 27 26 25 25 25 23 18 14 15 16 16 17 18 19 21 22 22 21 21 21 21 20 19 17 16 16 16 17 17 16 15 14 14 14 14 14 12 13 13 14
2 4 4 4 2 1 1 0 2 2 3 4 1 5 6 8 9 9 9 11 10 7 6 5 5 6 5 6 7 7 8 9 10 10 11 12 13 13 13 12 12 13 16 17 18 23 27 27 26 26 26 26 24 19 17 17 17 17 18 19 20 21 22 22 21 21 20 19 19 17 15 14 14 15 15 15 15 14 14 15 15 15 14 12 12 12 11
1 3 4 1 2 2 3 3 3 4 4 4 3 5 5 5 7 8 8 10 8 5 4 3 3 3 3 4 4 5 6 8 10 10 9 12 14 13 13 13 15 20 24 24 25 28 28 28 28 28 28 27 24 20 19 18 18 19 19 20 21 22 22 22 21 20 19 18 17 15 13 12 13 13 14 15 15 14 14 15 15 16 14 12 11 11 10
1 1 2 2 3 4 5 5 4 2 2 3 4 4 4 4 6 8 8 8 6 3 2 2 1 2 2 3 2 3 6 7 9 9 9 11 12 12 12 12 12 18 25 27 28 29 28 29 30 30 29 28 23 21 21 20 20 20 20 21 22 23 22 21 21 19 17 16 15 13 12 12 12 12 13 14 14 13 13 13 14 14 13 12 11 10 10
2 3 3 4 5 3 3 6 2 2 0 3 5 3 5 4 5 8 9 8 6 5 4 4 4 2 3 3 0 3 6 8 8 9 8 8 9 10 11 14 17 21 26 26 25 25 26 29 31 31 31 28 23 21 22 22 20 20 21 22 22 22 21 20 18 16 14 14 14 12 11 12 12 12 13 13 11 10 11 12 13 13 13 13 13 12 12
4 5 4 3 3 2 3 5 1 3 1 3 4 5 5 2 4 7 9 9 7 6 6 5 5 4 3 1 1 3 6 7 7 8 8 8 10 10 12 17 21 23 24 24 23 23 28 33 34 33 31 27 23 22 23 22 21 21 22 22 20 20 20 18 16 15 14 14 13 12 12 12 13 13 13 11 9 9 10 10 12 13 14 15 15 15 15
4 5 4 2 2 3 3 3 1 4 3 3 5 7 3 1 4 6 8 9 7 7 8 6 5 3 2 1 2 4 7 7 6 7 6 6 9 11 14 18 20 20 21 25 27 30 35 37 33 31 28 24 22 23 23 21 22 23 22 20 18 18 17 16 15 15 15 15 14 14 14 13 13 13 11 9 9 9 10 10 11 13 14 15 17 17 17
3 3 3 2 2 1 1 2 3 3 4 4 5 3 1 1 5 6 8 8 6 8 9 7 4 2 1 1 2 5 7 7 6 6 5 5 7 8 10 13 17 17 17 21 27 31 34 33 29 25 23 22 22 22 21 22 24 23 20 17 14 14 15 15 16 16 16 16 17 15 12 11 12 11 8 9 11 12 11 11 12 13 13 15 17 17 17
1 1 2 3 2 1 3 5 4 2 4 2 1 1 1 2 3 5 7 7 7 8 9 6 4 3 3 2 3 4 5 5 6 6 6 5 6 7 8 10 14 15 14 19 25 27 24 23 22 20 20 20 20 19 20 23 23 19 15 12 10 11 13 15 16 17 17 18 17 14 10 10 12 11 7 9 15 17 16 14 12 12 13 14 15 15 15
2 3 3 2 1 2 2 3 3 3 3 1 4 2 3 3 3 4 5 6 7 8 8 7 6 4 3 3 4 4 4 4 4 5 5 4 4 6 8 9 10 12 13 17 19 18 17 17 18 18 18 19 18 17 20 22 19 13 9 8 8 10 12 14 15 16 17 18 17 14 12 11 12 9 6 8 13 18 20 18 14 12 12 12 13 13 13
2 2 2 2 1 0 2 4 4 6 7 4 3 4 5 5 3 3 3 4 6 6 6 6 5 3 3 4 4 4 4 4 4 3 3 3 3 4 5 5 6 9 10 11 11 12 14 17 17 17 18 18 17 18 19 17 12 7 6 7 8 10 11 11 12 13 15 17 16 13 10 9 10 9 7 7 10 14 16 15 14 14 13 11 10 11 12
2 4 3 2 4 5 5 5 6 8 9 6 4 5 6 5 3 3 3 4 6 7 6 6 4 3 4 5 4 3 4 4 3 2 2 2 2 3 4 4 5 6 6 7 8 9 12 15 16 16 17 17 18 18 17 12 7 5 6 7 8 9 8 8 9 12 14 15 13 11 10 10 11 10 6 6 9 13 13 11 11 14 14 12 10 10 12
1 2 1 2 6 7 7 6 6 6 7 6 5 5 6 4 3 4 3 3 6 8 7 6 4 4 5 6 5 3 4 4 3 3 2 2 2 3 4 4 4 5 4 6 8 9 11 14 15 16 17 18 19 17 13 8 5 6 7 7 8 7 5 6 8 11 12 11 8 8 9 9 10 10 8 8 11 14 12 8 8 12 13 11 9 9 11
2 2 2 6 8 8 5 4 4 5 6 5 4 4 4 3 3 3 3 5 7 7 5 5 6 5 4 4 5 4 3 3 3 2 2 1 1 3 4 4 5 5 6 7 9 10 10 11 14 16 16 17 17 15 10 6 6 7 7 7 6 4 3 5 7 8 9 9 7 5 7 7 9 10 9 10 10 10 10 7 7 9 10 8 8 8 10
3 2 2 8 9 6 5 6 5 5 6 6 4 3 3 4 5 5 5 5 5 6 6 6 6 6 4 3 4 5 3 2 2 1 1 1 1 2 3 4 5 6 7 8 8 8 6 6 8 11 11 10 11 10 7 6 6 6 6 5 3 1 2 3 5 6 6 6 6 6 6 7 9 10 11 11 9 7 7 7 7 6 6 6 7 9 9
2 0 3 6 6 6 8 12 12 8 5 5 5 4 5 6 7 8 8 6 3 4 4 4 6 7 5 2 3 4 3 2 1 1 1 1 1 1 2 3 3 4 4 5 5 4 3 2 3 4 5 5 5 4 4 5 5 5 5 4 2 0 1 2 3 4 5 4 5 6 6 7 9 10 11 12 10 7 5 5 4 3 4 5 8 10 9
4 4 3 3 1 6 9 12 14 10 5 5 6 5 6 6 6 7 9 9 6 4 2 2 3 6 6 4 4 4 3 2 2 2 1 1 1 1 0 1 2 2 2 3 3 2 2 2 1 1 2 2 3 3 3 4 4 5 5 3 1 2 4 6 7 6 5 4 5 6 7 8 9 9 7 6 4 4 5 4 1 2 5 7 9 11 11
6 6 4 2 3 7 10 13 14 12 6 6 7 7 4 5 6 6 8 9 9 7 4 2 1 4 6 6 5 4 4 3 3 4 3 2 2 2 1 1 1 0 0 1 2 2 3 3 3 2 3 4 4 4 4 3 4 6 5 3 3 5 7 7 6 5 5 4 5 7 8 8 9 9 7 4 6 8 7 6 6 7 8 10 10 12 13
6 6 5 4 6 8 9 11 11 8 5 5 6 6 4 5 6 6 7 7 7 7 7 5 3 4 6 6 4 4 5 4 4 5 5 4 4 4 3 3 3 2 2 1 2 2 2 3 3 3 4 4 5 5 4 4 5 5 3 3 5 6 5 3 2 3 4 4 6 7 8 8 8 8 7 5 7 10 8 7 8 9 9 10 10 11 12
6 6 7 9 9 7 5 5 6 6 5 5 6 7 5 5 5 5 5 5 5 7 7 7 5 5 6 7 5 5 5 5 5 6 5 5 5 5 4 4 4 4 3 3 3 3 3 3 3 3 2 2 2 2 3 3 3 3 4 6 6 5 3 2 3 4 4 4 5 6 6 7 5 3 2 4 6 7 7 5 4 6 6 7 9 11 11
6 5 7 10 11 8 4 4 8 10 8 5 7 8 6 4 4 3 4 4 4 5 6 7 8 8 7 6 6 6 6 6 6 5 4 4 4 4 4 5 5 5 5 5 4 4 4 4 4 2 1 1 3 4 4 4 5 6 8 9 6 4 3 2 2 3 2 2 2 1 1 1 1 3 5 6 6 6 7 5 3 2 3 5 8 10 11
7 5 5 7 9 11 10 9 9 10 9 6 5 6 6 4 5 6 6 6 5 5 5 6 8 8 6 6 6 5 5 5 5 4 3 3 4 4 5 6 6 5 5 5 4 4 4 4 3 2 1 3 4 4 4 5 7 8 9 8 4 2 1 0 1 1 1 2 3 4 5 6 6 7 8 9 9 8 9 7 5 3 3 5 6 7 9
7 6 5 5 7 10 11 10 8 9 10 7 3 3 6 7 7 7 7 7 7 6 6 6 6 7 7 7 6 5 4 3 3 3 3 4 3 4 5 5 5 4 4 4 4 3 3 2 2 2 1 1 2 2 3 5 6 6 6 5 2 0 2 3 3 4 4 5 6 7 9 11 11 10 11 12 10 9 9 8 6 5 5 5 5 6 9
9 8 7 7 7 9 9 9 9 10 10 7 4 5 8 9 8 7 7 6 6 6 6 6 6 6 7 6 5 4 3 3 3 3 4 3 3 4 4 4 3 3 3 3 3 3 3 3 3 3 3 3 4 4 5 6 6 5 4 4 3 2 3 3 4 5 6 8 9 11 13 16 15 13 13 12 10 9 9 8 7 6 6 6 7 9 10
12 12 12 10 9 10 11 9 8 9 9 8 7 8 8 9 8 6 7 6 6 6 6 6 6 6 5 5 5 4 4 4 4 4 4 3 3 3 4 4 3 3 3 3 3 3 3 3 3 4 4 4 5 6 7 7 5 4 4 5 5 5 4 4 7 8 10 12 14 14 15 18 18 15 12 10 8 8 8 7 6 7 6 7 9 9 10
12 13 13 11 9 10 10 8 7 8 8 7 8 9 10 10 10 9 8 8 8 7 7 6 6 6 6 6 6 6 5 6 6 5 5 4 4 3 3 3 4 5 5 5 4 4 4 3 4 5 6 6 6 6 6 5 4 4 5 5 5 5 5 8 11 12 13 14 16 15 15 17 16 13 10 8 7 7 6 6 6 6 6 7 8 9 9
10 10 10 10 9 10 10 8 8 9 9 7 8 9 9 9 9 8 7 7 7 7 6 5 5 7 7 7 6 6 6 7 6 6 6 5 5 4 4 5 7 8 8 7 6 5 4 3 5 6 6 6 6 5 5 5 5 5 5 6 6 7 8 10 12 13 13 14 15 15 14 14 13 10 8 7 6 5 5 5 5 6 6 8 8 9 10
9 9 11 12 12 11 12 11 10 9 8 7 8 7 6 6 5 2 5 7 7 6 6 6 7 7 7 6 6 6 6 5 4 5 5 5 6 7 8 9 10 10 9 8 6 4 3 4 6 6 6 6 5 6 6 6 6 6 6 6 7 9 10 10 10 11 13 14 14 13 12 11 10 8 7 6 5 5 5 5 5 5 6 7 7 9 12
10 11 13 14 14 15 15 13 12 11 10 8 7 6 4 3 2 4 6 7 7 7 8 8 8 6 6 6 5 5 5 5 5 5 6 7 8 9 9 10 11 10 10 8 7 5 4 5 5 5 6 6 6 6 6 6 8 8 7 7 8 9 9 9 9 9 10 11 10 9 9 8 8 7 6 6 5 5 5 6 5 5 6 6 6 7 10
11 11 12 12 13 15 15 13 12 11 9 6 5 5 5 6 7 8 9 8 9 10 10 10 8 7 7 6 5 5 6 6 6 7 7 8 8 8 9 9 9 9 8 7 6 5 4 4 4 4 5 6 7 6 6 6 7 8 7 7 9 10 9 9 9 9 9 9 8 8 8 8 7 7 6 6 5 5 6 6 6 6 6 6 7 7 9
12 12 12 11 12 13 13 12 12 10 7 5 6 7 8 9 8 8 8 9 10 10 11 11 9 7 7 6 6 7 8 7 7 8 9 9 8 8 8 7 6 6 5 4 4 5 4 3 3 4 5 7 7 6 6 7 8 9 9 9 11 11 11 10 10 9 8 8 7 8 8 7 7 7 7 6 6 6 6 6 6 7 7 8 8 9 10
14 13 12 12 13 13 11 10 9 7 6 7 8 9 9 10 11 12 12 11 10 11 12 12 10 8 7 8 8 8 8 8 9 10 10 9 8 8 7 5 4 3 3 3 3 3 4 4 5 6 7 7 7 7 8 9 11 11 11 11 11 11 11 11 10 9 8 8 7 7 7 7 7 8 8 7 7 7 7 7 8 8 9 10 10 10 11
12 11 10 10 10 9 6 2 3 4 4 4 6 7 10 14 18 17 14 11 10 10 11 11 10 9 9 9 9 9 8 8 9 10 10 9 9 9 8 6 5 4 4 4 5 5 5 6 7 8 9 9 9 9 10 11 12 12 11 11 10 10 10 10 10 9 9 8 8 8 7 7 8 8 8 8 8 8 8 9 9 9 9 10 10 10 10
7 8 7 6 3 2 4 7 10 13 14 15 14 11 9 11 15 16 14 12 11 10 9 9 9 9 10 10 10 9 8 7 8 10 10 10 9 9 8 7 5 5 6 6 7 7 7 7 8 10 10 9 9 10 11 12 12 11 10 9 9 9 9 9 9 9 8 8 8 8 8 8 9 9 9 9 9 9 9 9 10 9 9 8 8 8 9
4 3 3 2 2 5 8 9 12 14 18 21 22 17 10 9 11 12 12 13 12 9 6 6 8 9 10 10 11 11 9 8 9 10 10 8 8 7 7 5 5 5 6 7 8 8 8 9 9 10 9 9 10 10 10 10 10 9 8 8 8 8 8 8 8 8 8 7 8 8 8 9 9 10 10 9 9 9 9 9 9 8 7 7 7 7 7
2 0 2 2 3 5 8 10 11 11 11 16 20 19 15 13 13 12 12 12 12 8 7 7 8 9 11 12 12 11 10 10 10 10 7 5 5 6 6 6 6 6 6 7 8 8 8 9 9 9 9 10 10 9 8 8 8 7 7 7 7 7 8 8 8 8 8 8 8 9 9 9 9 9 9 9 9 8 8 8 8 7 6 6 6 6 6
3 1 1 2 2 3 6 10 11 10 9 10 15 19 20 18 15 12 10 10 11 11 10 9 9 11 12 13 13 12 10 10 9 9 7 5 5 6 7 8 7 7 7 8 9 8 8 9 9 9 10 10 8 7 7 7 6 6 6 6 7 7 8 8 8 8 8 9 9 9 8 8 8 8 8 8 8 7 7 6 6 6 6 5 5 5 5
2 2 1 2 2 2 4 8 11 10 8 8 11 15 18 17 15 13 12 11 11 11 11 11 11 11 12 13 12 11 10 10 10 10 9 8 7 7 8 8 8 8 8 9 8 8 8 9 9 9 9 9 7 6 6 6 5 5 5 5 6 6 7 7 8 8 8 8 8 8 7 7 7 7 7 6 6 6 5 5 5 5 5 5 4 4 4
2 1 1 4 4 4 4 6 7 8 10 10 11 11 13 13 12 13 13 13 12 12 12 12 12 12 12 11 11 11 12 12 13 12 10 7 7 7 7 8 8 8 9 9 8 8 8 8 8 8 8 8 7 7 6 5 4 4 4 4 4 5 6 6 7 7 7 7 7 6 6 6 5 5 5 5 5 4 4 4 4 4 4 4 4 3 3
4 3 2 5 5 3 3 4 6 7 9 9 8 7 9 10 10 11 11 11 11 11 11 11 11 12 12 12 13 13 12 12 13 11 9 8 9 11 11 11 10 9 9 9 8 8 8 8 7 6 6 6 7 6 6 5 4 3 3 3 4 5 5 6 7 7 7 7 6 5 5 5 5 4 4 4 4 3 4 4 4 4 4 4 3 3 3
5 5 4 4 5 6 6 7 7 6 6 5 4 5 6 8 9 10 10 10 10 10 10 10 11 13 16 17 18 17 14 12 9 8 8 10 13 15 14 13 12 12 10 9 9 9 8 8 6 5 5 5 5 6 5 5 4 3 3 3 4 5 5 6 7 8 7 7 6 6 5 5 4 4 4 4 3 3 3 3 3 3 4 3 3 4 3
4 5 5 5 6 7 8 8 6 5 4 4 5 6 7 8 9 9 9 9 10 9 9 11 12 15 17 20 21 20 17 13 9 8 10 12 13 14 13 12 13 13 12 10 10 10 9 7 6 4 3 3 4 5 5 5 4 4 4 4 4 5 6 7 8 7 7 7 6 5 5 5 4 3 3 3 2 2 3 3 3 3 3 3 3 4 4
4 5 6 6 6 7 7 6 4 3 3 4 6 7 7 8 9 8 8 9 10 9 9 10 11 13 16 18 19 18 17 13 9 10 14 15 13 11 11 12 13 13 12 10 10 11 10 9 7 5 3 3 3 3 3 4 4 4 4 5 5 6 7 7 8 7 6 5 5 5 4 4 4 3 3 2 2 2 3 3 3 3 3 4 4 4 4
4 4 4 4 4 4 4 3 2 3 4 5 6 7 7 7 7 7 7 8 8 8 8 8 9 11 14 15 14 16 17 14 9 12 18 18 14 11 11 11 11 12 10 8 7 9 10 9 7 5 4 3 3 3 3 3 4 4 5 6 6 7 8 8 8 7 6 5 5 5 4 4 3 3 3 2 2 2 2 3 3 3 4 4 4 4 4
3 3 2 2 3 2 2 2 3 4 5 6 6 7 7 6 5 6 7 8 8 8 8 8 7 9 11 11 10 13 16 13 9 11 18 20 16 14 13 11 10 11 11 8 7 8 8 8 8 7 5 4 3 3 3 4 4 4 5 6 6 7 8 8 7 6 6 5 5 4 4 3 3 3 3 2 2 2 2 3 3 3 4 4 3 3 4
4 3 3 3 3 2 2 3 3 5 6 6 6 7 6 6 5 5 6 8 8 8 8 8 7 8 10 10 8 10 12 10 8 12 18 20 17 15 14 12 10 11 11 10 9 9 8 8 8 8 7 6 4 4 4 5 5 5 5 6 7 7 7 7 7 6 6 6 5 4 4 4 4 3 3 2 2 2 3 3 3 3 3 3 3 4 4
Wind_Direction
91 71 74 205 180 126 135 153 160 164 165 178 195 198 156 156 206 266 202 152 226 256 262 267 270 262 255 257 248 238 224 202 191 182 181 185 184 181 180 181 180 177 176 175 179 187 191 196 204 211 219 226 230 235 237 238 237 236 243 250 252 255 258 260 264 267 270 274 277 283 289 293 300 306 309 309 308 307 309 312 315 315 312 312 311 310 310
108 99 15 142 125 111 120 139 154 165 174 190 204 194 162 192 241 283 274 209 248 257 256 265 274 278 267 270 262 239 222 202 189 187 188 189 186 183 182 181 182 181 178 175 178 184 187 194 202 210 219 224 228 231 234 235 237 239 243 247 249 253 257 261 264 266 268 271 276 283 288 294 301 307 310 310 308 308 310 312 314 314 311 312 313 313 313
104 77 79 89 77 98 121 123 137 163 168 178 210 220 178 206 259 282 268 261 268 259 236 252 268 283 271 261 247 233 223 201 190 192 194 191 185 183 183 182 181 181 176 172 176 182 189 196 204 211 217 222 226 228 232 236 242 245 244 245 247 250 255 259 261 263 265 269 276 284 291 298 304 307 310 312 311 311 313 314 314 313 312 313 315 315 314
144 46 75 93 76 77 101 162 195 187 175 176 199 199 184 195 218 233 235 257 271 267 221 246 261 256 250 251 242 231 221 203 198 198 195 190 184 182 182 181 180 179 175 173 178 185 191 197 205 212 217 220 224 226 230 237 246 248 246 245 247 249 252 257 260 264 267 271 278 284 294 303 307 308 313 316 314 314 317 317 316 313 312 313 316 320 321
146 62 90 110 105 130 192 235 215 195 185 184 174 173 206 210 201 206 236 255 273 291 290 266 264 250 249 257 253 242 225 211 207 204 197 189 185 183 182 180 181 179 174 176 182 187 193 200 208 215 217 218 221 224 229 238 245 248 247 248 249 250 252 256 260 265 270 274 279 286 296 305 306 308 315 317 316 316 318 319 316 312 312 315 319 324 327
151 125 122 128 177 213 195 110 211 187 187 193 191 194 206 205 202 221 262 274 276 268 249 251 260 263 267 269 268 264 240 217 212 209 201 192 186 185 184 183 181 175 171 176 183 190 198 204 212 217 218 219 221 222 227 235 240 245 248 249 251 253 255 257 260 266 271 276 281 288 298 305 306 310 315 317 315 316 319 319 314 309 310 316 322 327 333
132 128 146 182 213 221 104 43 25 74 152 177 194 237 235 216 218 230 254 264 259 254 250 249 258 266 269 267 267 262 240 217 209 206 200 192 187 185 185 183 176 168 170 174 180 194 203 208 213 216 217 220 221 221 224 231 237 244 248 251 254 255 258 261 264 268 274 279 284 290 297 304 310 314 315 314 313 315 317 317 310 304 305 312 320 329 341
130 147 181 210 249 317 336 266 149 122 94 109 172 271 255 230 223 216 230 249 253 259 265 258 256 260 266 272 263 245 231 214 206 206 199 191 190 187 183 178 171 172 179 182 189 200 206 210 213 216 218 219 219 219 223 229 237 244 250 254 256 258 261 265 269 272 275 280 285 290 296 305 314 318 316 314 314 314 313 312 308 302 297 302 317 329 341
157 169 189 232 324 289 214 191 170 180 177 152 185 253 250 223 210 194 211 244 253 260 273 269 257 245 252 274 251 212 214 207 201 208 202 191 191 187 182 179 177 181 187 192 199 205 209 211 214 216 219 218 217 219 222 228 236 244 250 255 258 262 266 270 275 280 281 282 284 287 294 305 312 314 312 311 313 313 311 311 313 307 296 293 308 325 333
142 175 194 219 250 235 209 216 216 193 191 155 162 230 253 228 207 194 208 239 248 239 242 228 210 218 234 268 258 176 189 195 194 202 203 193 187 180 175 171 171 184 193 198 204 208 209 213 217 218 219 218 216 218 222 227 235 241 247 254 260 265 270 275 283 288 286 282 282 284 289 298 304 307 309 310 311 312 312 314 317 313 302 296 304 315 320
154 194 210 213 229 232 215 231 228 75 130 152 143 228 259 235 206 196 203 227 233 216 203 175 170 208 233 246 345 137 175 186 186 189 188 181 177 174 174 175 181 193 200 202 205 208 211 216 219 219 219 217 214 217 223 227 232 237 244 252 261 269 276 282 288 289 284 279 278 279 283 290 294 298 305 309 309 310 313 317 321 318 310 306 305 306 307
162 193 212 220 238 246 247 259 336 79 177 175 173 248 266 228 197 187 190 214 219 193 177 170 181 220 237 243 34 126 163 170 176 180 174 169 171 173 182 192 196 199 200 201 203 208 214 219 220 219 218 213 211 217 223 226 229 235 243 252 264 274 280 284 285 283 278 272 273 277 280 282 283 291 302 306 305 312 316 316 320 320 317 313 307 304 304
166 197 219 242 251 245 265 284 96 127 158 186 218 245 266 180 197 186 190 211 203 170 172 182 193 220 255 354 40 134 155 160 168 176 172 173 180 182 190 200 203 202 202 204 207 211 217 219 220 219 214 208 210 218 222 225 230 236 244 254 268 279 283 284 283 282 276 270 271 273 274 276 278 284 296 302 301 308 312 312 317 319 319 318 313 309 309
152 192 223 257 275 267 92 88 106 151 193 208 226 251 338 198 204 192 199 210 190 171 182 190 188 182 153 100 124 150 160 162 164 171 171 174 189 193 197 203 204 202 204 209 214 218 221 221 220 218 212 208 213 219 221 226 233 238 246 258 272 282 286 284 282 280 277 275 273 269 273 295 302 296 303 320 320 315 307 306 313 315 317 320 317 314 314
125 152 198 230 270 22 121 129 126 191 224 231 329 340 307 253 220 198 205 208 193 184 185 183 179 164 139 135 146 153 159 155 154 167 174 177 190 198 201 207 207 204 207 215 219 222 222 220 220 218 212 212 216 218 224 232 237 239 247 262 278 285 286 286 284 282 280 279 277 270 267 287 296 292 300 321 326 324 315 309 311 313 316 319 318 315 315
182 174 181 197 136 91 155 182 190 225 233 17 23 343 285 275 241 216 215 209 199 192 180 170 172 172 153 148 155 159 160 156 153 160 172 182 196 202 207 210 207 207 214 222 225 226 224 223 223 221 217 216 216 220 229 236 234 233 247 270 284 286 286 289 291 290 287 286 286 279 265 262 267 267 265 284 305 315 312 307 307 309 312 317 319 317 315
215 228 244 289 338 328 256 254 265 280 290 311 325 287 282 281 251 225 224 205 192 189 178 164 165 176 161 144 146 157 156 152 148 146 160 184 199 210 218 216 210 214 224 233 236 237 237 234 230 226 223 218 215 221 228 228 222 227 257 278 284 285 288 295 303 306 304 302 298 282 263 256 256 255 262 275 290 302 302 301 308 313 311 314 318 317 317
287 275 258 290 305 290 271 253 247 266 281 284 269 254 259 264 246 222 228 203 174 170 173 167 164 167 149 135 135 141 135 135 140 136 150 189 216 227 228 226 228 234 243 250 251 250 248 243 235 229 225 219 217 220 219 213 215 245 268 276 280 282 289 306 322 326 324 319 304 272 255 258 252 242 248 277 289 296 296 298 308 308 304 309 316 317 318
264 253 164 324 301 287 283 279 266 264 264 255 243 242 245 244 223 209 210 177 156 162 171 168 153 144 144 141 140 139 133 139 155 170 181 188 205 230 233 235 243 246 249 253 253 251 250 247 239 229 221 218 216 214 209 209 235 262 266 271 274 277 294 326 342 346 346 341 316 272 261 262 247 236 248 275 286 292 292 293 300 297 296 306 318 320 322
262 270 332 326 300 274 265 273 270 276 275 257 244 250 245 210 167 172 165 149 153 161 169 162 145 139 145 143 138 140 141 139 143 155 173 175 203 250 258 257 250 241 238 245 248 247 247 247 240 228 220 217 215 210 206 219 251 264 265 263 260 268 322 354 6 12 11 6 349 304 272 256 242 242 262 280 284 282 279 280 291 295 298 311 324 326 327
268 247 351 349 334 316 319 320 302 287 284 273 261 253 227 176 146 140 138 142 154 162 166 162 144 134 137 135 129 132 125 106 107 113 119 200 262 274 270 260 247 240 241 247 251 254 258 257 241 227 219 219 219 216 218 238 257 261 252 243 242 265 18 23 24 18 6 358 352 334 299 273 268 269 273 275 270 260 263 273 279 285 298 319 333 337 337
277 54 38 16 349 314 310 315 314 313 299 271 246 210 194 183 162 145 134 124 125 145 160 163 145 136 137 133 122 123 114 104 118 126 133 189 261 288 272 262 262 261 265 272 278 291 309 289 242 220 215 228 241 249 256 261 259 241 220 213 211 88 32 351 335 333 332 333 338 337 323 303 296 287 273 268 263 244 229 244 259 285 321 339 351 357 358
285 306 354 39 309 279 287 300 308 314 303 259 248 233 204 185 171 154 139 132 135 146 155 173 149 138 140 145 138 131 129 126 121 118 129 135 98 57 337 319 322 311 311 321 331 353 0 324 272 242 261 282 306 315 299 282 251 219 207 204 214 278 301 300 298 306 317 313 306 307 304 305 306 294 268 255 246 206 189 187 163 29 22 26 27 23 23
288 299 331 355 283 282 290 297 302 303 286 247 250 257 229 178 168 162 147 140 146 153 154 161 141 131 139 150 154 143 133 119 111 112 118 122 116 109 113 117 118 179 71 15 10 17 5 345 332 321 310 309 313 308 296 276 235 216 214 233 264 282 295 300 302 308 306 290 285 288 286 284 285 278 258 208 139 130 131 113 89 73 61 56 53 45 40
286 302 318 295 264 266 279 288 293 298 293 265 259 260 231 188 176 169 157 149 150 152 150 146 135 134 141 145 145 135 125 118 125 130 128 133 141 140 143 153 156 150 136 100 62 36 6 352 341 326 311 303 297 286 265 238 220 215 236 282 286 291 302 314 311 296 282 275 282 288 284 272 261 255 247 206 155 142 139 116 86 74 67 63 61 56 48
273 292 299 290 279 270 273 292 309 326 331 300 275 269 245 207 190 175 161 156 156 156 153 146 141 146 149 144 135 128 124 126 140 149 148 153 156 152 154 161 155 143 130 113 89 63 36 23 10 349 331 303 263 217 194 198 206 227 289 303 299 297 304 308 289 279 273 277 286 288 285 273 258 235 162 155 151 145 144 132 88 65 56 49 50 54 50
289 296 303 304 306 308 316 319 316 319 322 300 275 275 261 212 176 156 138 129 132 138 136 134 134 136 138 139 135 131 135 142 151 157 157 147 139 134 140 142 133 121 106 92 79 63 45 35 32 37 73 174 186 181 186 213 236 266 298 310 309 302 304 300 273 264 259 262 275 268 224 185 110 96 107 120 121 112 108 104 87 72 46 32 38 45 48
292 291 283 288 297 302 308 310 306 303 300 283 265 276 269 215 171 159 154 145 138 130 124 133 142 141 141 151 154 145 143 149 152 147 133 114 106 120 137 137 127 112 99 87 74 59 50 52 65 90 161 212 223 227 242 259 270 287 307 317 313 288 285 179 171 175 148 126 132 140 134 119 110 111 115 113 107 101 96 87 73 55 34 21 23 31 38
281 280 263 256 269 282 293 298 296 293 289 273 233 235 245 221 187 173 170 160 151 147 146 153 160 155 151 158 164 156 149 151 142 113 100 95 104 126 138 137 129 115 100 87 75 66 70 94 114 124 165 272 294 298 304 315 321 326 333 339 333 252 163 149 133 120 114 114 123 131 126 116 112 113 108 102 98 93 86 75 61 47 33 23 16 14 19
294 295 289 283 281 281 283 286 290 293 291 278 238 215 226 226 208 182 170 165 163 161 158 156 158 157 154 155 153 143 129 117 97 90 94 102 128 148 153 154 152 135 104 84 83 95 110 120 116 95 59 32 20 12 5 5 10 19 28 35 47 87 144 145 123 114 119 121 122 124 120 114 111 106 99 95 92 85 77 68 58 49 36 25 24 20 14
300 300 297 293 289 286 284 282 283 285 281 268 244 224 220 230 229 197 170 175 182 172 163 161 159 156 149 139 129 118 107 96 91 94 101 109 128 150 159 162 157 141 123 113 113 118 121 116 98 72 50 31 14 5 5 13 31 53 59 63 75 89 112 121 112 113 121 123 120 117 112 108 106 102 98 95 89 83 80 72 60 52 42 33 29 23 14
297 297 296 291 285 281 280 276 274 276 274 259 239 224 212 212 213 198 185 189 184 166 161 165 155 137 124 119 115 110 104 101 100 102 104 106 109 125 143 141 129 122 121 118 115 117 116 96 66 50 36 21 8 4 9 27 55 73 78 84 91 98 107 112 113 117 122 123 118 112 106 104 102 101 102 101 96 91 88 80 68 62 58 51 41 30 28
290 292 292 290 287 284 281 279 274 272 268 253 239 233 226 224 221 202 180 172 161 149 150 147 125 114 116 116 114 112 111 108 103 101 102 103 103 106 115 120 117 113 110 107 108 115 111 66 45 41 33 24 22 29 45 63 73 82 96 107 113 115 115 117 119 122 122 117 112 108 105 103 103 105 107 106 102 99 96 91 84 79 76 70 59 52 58
269 270 274 278 279 276 274 275 273 270 265 252 240 234 238 255 264 216 137 137 138 136 134 123 110 109 112 111 109 113 114 107 100 101 105 108 109 110 110 111 109 105 101 98 99 100 78 52 50 46 36 35 47 56 63 76 87 94 103 113 117 116 115 115 116 116 114 111 108 107 105 103 105 109 112 111 108 105 101 97 95 94 94 89 76 66 69
268 268 268 267 265 262 262 263 264 264 263 253 238 225 213 210 192 145 137 137 134 125 115 106 98 92 87 86 89 93 91 90 100 112 117 118 117 115 112 110 108 104 97 91 88 83 70 56 49 44 41 47 60 67 74 89 100 101 103 110 113 114 115 114 111 109 109 108 104 102 103 105 108 111 112 112 110 106 101 100 102 106 105 99 88 74 69
281 276 271 265 261 259 258 257 258 260 258 242 218 193 168 160 161 159 150 135 123 115 108 99 89 78 70 67 73 81 86 94 107 117 121 121 121 120 117 115 113 110 104 91 74 64 61 47 27 37 58 64 65 71 84 102 109 107 108 112 113 112 113 111 106 103 103 104 104 107 110 112 112 111 111 111 109 106 106 106 107 107 101 93 88 82 74
291 284 275 270 263 256 253 254 254 248 231 198 179 174 166 159 152 140 122 106 98 97 96 91 87 83 81 82 88 93 98 106 116 122 124 126 126 122 117 113 111 111 106 84 46 35 49 50 38 51 70 74 71 76 93 112 117 114 111 113 113 113 111 108 105 105 107 109 112 115 116 115 113 111 110 112 113 114 113 111 108 104 99 95 91 86 80
298 293 283 276 270 263 261 261 255 236 205 180 168 158 144 125 105 90 81 77 80 87 92 93 95 99 105 105 101 99 104 116 125 128 128 127 125 116 103 92 82 79 80 77 66 66 78 83 78 75 79 82 86 95 109 119 119 114 110 110 110 110 110 109 110 112 114 115 115 116 116 115 114 112 110 110 112 113 112 111 111 109 104 100 95 89 83
305 306 303 293 278 263 246 202 132 105 98 114 122 115 111 112 110 104 96 90 90 95 100 104 111 117 119 113 105 105 113 123 128 129 127 123 117 107 92 78 72 75 83 93 99 101 102 101 96 94 95 95 97 106 116 121 119 113 110 109 108 108 109 111 111 111 111 111 110 110 111 110 108 107 107 106 107 109 112 113 114 113 106 100 96 91 87
316 320 327 326 293 197 143 116 105 95 88 87 84 76 75 97 109 111 109 103 98 96 104 115 124 126 124 119 116 120 126 131 131 130 128 123 119 111 99 87 81 87 94 98 100 105 108 107 102 101 103 102 101 108 116 118 113 108 107 107 108 110 112 113 113 113 112 111 109 107 106 104 101 101 103 106 107 109 114 117 118 116 110 104 99 95 91
318 328 353 29 110 129 122 115 112 111 111 111 110 108 104 103 103 103 103 102 99 103 127 145 140 133 130 129 130 133 135 134 133 133 132 130 126 119 109 98 92 96 103 107 109 110 109 104 101 100 100 101 102 108 112 110 104 101 102 105 109 114 116 116 115 115 113 111 111 108 105 103 103 102 104 108 110 111 114 118 122 121 116 110 104 99 95
290 56 92 93 110 121 120 116 110 108 110 113 115 119 123 120 109 103 107 115 124 142 165 161 144 135 134 135 135 133 131 131 134 134 132 129 126 124 121 117 114 117 121 119 113 107 100 96 96 96 96 96 98 100 102 101 98 99 104 108 111 115 117 117 116 116 115 113 112 110 109 109 110 110 110 111 111 114 116 118 119 122 121 117 112 105 99
259 261 87 91 98 110 112 109 104 96 87 91 107 118 125 125 121 121 129 137 142 148 150 144 138 138 140 142 139 133 129 132 135 130 121 112 112 118 122 123 123 127 129 121 110 103 97 94 93 91 90 88 86 82 84 89 92 95 103 111 114 115 117 118 118 118 119 118 116 116 116 115 114 115 116 115 115 118 122 124 125 126 126 125 121 114 105
260 290 33 81 71 62 86 98 102 102 97 97 113 125 130 134 141 151 154 149 146 147 149 150 149 150 151 150 144 139 139 144 142 135 127 120 115 116 119 121 123 128 128 119 110 104 102 101 99 94 87 80 74 72 76 81 84 89 100 113 119 119 120 123 124 124 124 124 123 122 121 120 119 119 119 119 121 124 127 131 135 136 134 132 130 123 113
202 245 123 97 78 45 44 69 92 111 117 118 124 131 134 139 151 158 156 152 153 156 158 159 158 157 157 153 146 144 148 150 147 145 142 139 137 139 140 137 133 134 131 123 115 111 111 111 108 101 89 78 74 75 78 79 81 91 104 119 131 133 130 130 131 132 133 132 131 129 127 128 128 125 125 128 132 134 132 134 139 142 141 141 142 138 130
198 206 160 120 112 105 89 89 104 119 121 118 118 125 132 140 151 157 156 156 158 160 161 162 161 160 158 151 143 140 145 150 154 157 157 151 150 156 158 155 150 147 142 133 124 121 124 125 118 103 89 80 77 79 84 86 86 95 115 133 144 149 148 142 141 142 142 142 141 141 139 139 139 137 138 140 140 139 140 143 146 149 153 157 156 153 150
208 195 169 142 136 139 140 139 139 138 133 124 118 121 129 142 153 157 157 156 154 154 157 162 163 164 165 162 156 153 153 156 162 171 168 157 154 159 163 163 160 158 154 147 140 139 142 142 133 114 96 87 84 89 97 97 91 95 117 137 147 154 152 147 145 146 145 145 146 146 146 148 150 151 151 153 153 153 160 164 162 164 169 171 167 164 161
198 173 156 148 141 139 143 151 154 151 141 129 125 127 134 143 149 151 153 154 152 149 153 161 166 169 172 171 168 166 164 161 162 172 174 168 163 163 166 168 169 168 164 156 152 154 158 159 152 137 117 100 96 101 108 106 99 99 111 125 136 143 143 142 144 145 144 145 151 154 155 159 163 164 165 168 170 172 177 180 181 179 176 170 165 164 162
155 144 145 150 148 146 151 156 153 143 127 119 121 129 136 141 143 144 150 154 152 149 154 162 167 171 175 176 176 176 175 172 170 174 176 173 169 167 170 174 178 177 172 163 161 167 173 175 170 161 148 127 116 116 123 125 119 116 120 128 135 139 140 140 142 144 146 151 158 162 164 166 168 170 173 174 170 168 170 171 166 162 159 159 161 163 164
115 120 128 133 132 137 142 131 119 128 131 125 131 141 147 146 146 152 159 161 158 156 159 163 167 174 180 183 185 187 188 188 186 181 178 176 174 172 173 175 179 183 183 178 170 170 173 174 173 173 173 166 152 146 152 154 150 146 147 148 149 151 153 153 152 153 155 158 162 166 168 169 169 174 180 175 159 155 162 163 159 160 165 170 173 176 175
52 65 76 85 99 123 136 131 139 150 148 139 142 153 160 160 156 157 163 167 165 163 163 166 171 181 185 186 189 193 194 196 194 186 184 183 184 183 181 181 183 188 192 191 177 167 169 174 180 186 192 192 184 184 188 187 182 178 176 172 169 169 170 170 171 172 175 178 179 178 177 180 183 188 191 186 170 161 168 170 171 176 184 190 193 195 193
51 55 68 87 109 132 140 138 145 154 155 151 150 155 162 163 156 154 165 175 179 178 176 176 179 186 190 191 192 195 194 192 186 185 187 189 190 190 189 189 190 193 196 196 190 184 182 185 190 196 202 202 200 204 208 206 203 201 197 193 191 189 188 188 191 194 196 201 205 205 201 202 205 205 204 203 201 195 191 191 191 195 203 206 206 206 207